Location: Gugi
(45.4667°N, 11.1000°E)
Time: 11:04:03
(UTC+00:00)

NOSS 2-3 (D) - Pass Details

Date: 17 November 2019
Orbit: 597 x 1615 km, 63.4° (Epoch: 03 December)

Event Time Altitude Azimuth Distance (km) Brightness Sun altitude
Rises 16:42:29 0° 192° (SSW) 2,826 7.4 -10.4°
Reaches altitude 10° 16:44:45 10° 183° (S) 1,951 6.4 -10.8°
Maximum altitude 16:48:40 35° 117° (ESE) 1,052 4.4 -11.4°
Enters shadow 16:52:00 16° 58° (ENE) 1,822 5.4 -12.0°
